NOAA NWS Hourly Roundups by Site

Regional Weather Roundup for Phoenix, AZ

To Select Another Site Choose from List

Select Site:  

000
ASUS45 KPSR 232310
RWRAZ

ARIZONA HOURLY REGIONAL WEATHER ROUNDUP
NATIONAL WEATHER SERVICE PHOENIX AZ
400 PM MST SAT JAN 23 2021

NOTE: FAIR INDICATES FEW OR NO CLOUDS BELOW 12,000 FEET WITH NO
SIGNIFICANT WEATHER AND/OR OBSTRUCTIONS TO VISIBILITY.

AZZ001>003-036-240000-
NORTHWEST ARIZONA

CITY           SKY/WX    TMP DP  RH WIND       PRES   REMARKS
BULLHEAD CITY  MOSUNNY   61  32  33 S12       29.82F
KINGMAN        PTSUNNY   51  26  37 SW22G32   29.83S
$$

AZZ004>008-015-016-018-240000-
NORTH CENTRAL ARIZONA

CITY           SKY/WX    TMP DP  RH WIND       PRES   REMARKS
GRAND CANYON   PTSUNNY   37  25  61 SW20G26   29.83S WCI  27
WILLIAMS       MOSUNNY   36  27  69 SW10G20   29.85R WCI  28
PRESCOTT       MOSUNNY   45  24  43 SW17      29.85S
FLAGSTAFF      PTSUNNY   32  26  78 SW12      29.85S WCI  23
PAYSON         CLOUDY    43  36  75 S9G15     29.88S
PAGE           MOSUNNY   49  24  37 N6        29.82R
$$

AZZ009>014-017-240000-
NORTHEAST ARIZONA

CITY           SKY/WX    TMP DP  RH WIND       PRES   REMARKS
WINSLOW        CLOUDY    52  27  38 SW15      29.85R
SAINT JOHNS    MOSUNNY   50  22  33 SW25G36   29.82R
WINDOW ROCK    PTSUNNY   43  31  62 SW13      29.85S
SHOW LOW       MOSUNNY   45  25  45 S20G26    29.87S
$$

AZZ540-542>544-546-548-240000-
GREATER PHOENIX AREA

CITY           SKY/WX    TMP DP  RH WIND       PRES   REMARKS
PHOENIX        PTSUNNY   61  44  53 VRB5      29.82F
BUCKEYE          N/A     61  43  51 S5        29.85S
GLENDALE       PTSUNNY   61  45  55 SW6       29.86S
DEER VALLEY    CLOUDY    56  48  74 E5        29.84F
SCOTTSDALE     PTSUNNY   61  43  51 VRB6      29.85S
MESA-FALCON    PTSUNNY   62  39  42 SW12      29.83S
MESA-GATEWAY   PTSUNNY   63  37  39 S15       29.85F
CHANDLER       PTSUNNY   64  36  34 S17       29.84F
$$

AZZ539-553-240000-
SOUTHWEST MARICOPA COUNTY AND PINAL COUNTY

CITY           SKY/WX    TMP DP  RH WIND       PRES   REMARKS
CASA GRANDE    MOSUNNY   61  38  42 SW15      29.85F
$$

AZZ503-504-507>509-240000-
SOUTHEAST ARIZONA

CITY           SKY/WX    TMP DP  RH WIND       PRES   REMARKS
TUCSON         MOSUNNY   65  31  28 SW16G30   29.86S
NOGALES        SUNNY     59  36  42 S14G25    29.88S
SAFFORD        MOSUNNY   64  29  26 CALM      29.83S
$$

AZZ532-240000-
SOUTHWEST ARIZONA

CITY           SKY/WX    TMP DP  RH WIND       PRES   REMARKS
YUMA           LGT RAIN  63  40  42 CALM      29.82F
$$

CAZ041-043-047-048-061-525>527-560>570-240000-
SOUTHERN CALIFORNIA

CITY           SKY/WX    TMP DP  RH WIND       PRES   REMARKS
DOWNTOWN L.A.  CLOUDY    55  41  59 CALM      29.86S
L.A. AIRPORT   PTSUNNY   54  43  66 SE5       29.87S
SAN DIEGO      RAIN      52  47  83 NW9       29.92R
BURBANK        RAIN      47  43  86 N5        29.85S FOG
ONTARIO        LGT RAIN  47  42  83 E10       29.85F
RIVERSIDE      CLOUDY    46  43  89 NE5       29.87F
PALM SPRINGS   CLOUDY    59  38  45 NW14      29.84S
IMPERIAL       CLOUDY    64  40  41 S9        29.80F
BLYTHE         PTSUNNY   63  37  38 SW14      29.83S
NEEDLES        PTSUNNY   62  34  35 SE8       29.82F
$$

NVZ020-UTZ003-240000-
SOUTHERN NEVADA-UTAH

CITY           SKY/WX    TMP DP  RH WIND       PRES   REMARKS
LAS VEGAS      PTSUNNY   53  25  33 NE6       29.82S
SALT LAKE CITY LGT SNOW  30  30 100 NW7       29.82R FOG     WCI  23
$$

NMZ009-TXZ055-240000-
NEW MEXICO-WEST TEXAS

CITY           SKY/WX    TMP DP  RH WIND       PRES   REMARKS
ALBUQUERQUE    PTSUNNY   54  19  25 W13       29.81S
EL PASO        MOSUNNY   64  32  30 SW14G22   29.87S
$$


........................KEY........................
SKY/WX - SKY CONDITION/WEATHER
TMP    - TEMPERATURE IN FAHRENHEIT
DP     - DEW POINT IN FAHRENHEIT
RH     - RELATIVE HUMIDITY IN PERCENT
WIND   - DIRECTION AND SPEED IN MILES PER HOUR (MPH)
VRB    - VARIABLE WIND DIRECTION
PRES   - MEAN SEA LEVEL PRESSURE IN INCHES OF MERCURY
         F - FALLING PRESSURE   R - RISING PRESSURE
         S - STEADY PRESSURE
VSB    - VISIBILITY IN MILES
HX     - HEAT INDEX IN FAHRENHEIT
WCI    - WIND CHILL INDEX IN FAHRENHEIT
TC     - TEMPERATURE IN CELSIUS WHICH IS ALSO KNOWN AS
         TEMPERATURE IN CENTIGRADE
AFB    - AIR FORCE BASE
         LUKE AFB IS LUKE AIR FORCE BASE
         DAVIS-MONTHAN IS DAVIS-MONTHAN AIR FORCE BASE
NAS    - NAVAL AIR STATION
         EL CENTRO NAS IS EL CENTRO NAVAL AIR STATION
N/A    - NOT AVAILABLE



 

View Past Reports for Phoenix, AZ.

Products Courtesy of NOAA-NWS
NWS Information Parsing Script by Ken True at Saratoga Weather - Script by SE Lincoln Weather.